Meteo Giornale » Osservazioni meteo Svizzera » Ginevra-Cointrin

ore: 16:50 - Osservazioni Meteo Ginevra-Cointrin
Lat. 46° 15' N Lon. 6° 8' E Alt. 420 metri s.l.m.

coperto_pioggia Europe/Zurich

14 °C

Pioggia Debole

Temp. 24 Ore

13 °C

16 °C

Nord/Nord-Est

7.4 Km/h

Dew point 13 °C

Umidità 93 %

Visibilità  10 Km

Il sole sorge alle ore 07:56

Il sole tramonta alle ore 18:44

Data e Ora Cielo e Fenomeni T °C DP °C Um. % Pres. hPa Vis. km Vento km/h
Oggi h: 16:50 coperto_pioggia Pioggia Debole 14 13 93 1008 10 N/NE 7.4
Oggi h: 16:20 coperto_pioggia Pioggia 14 13 93 1008 8 NE 9.3
Oggi h: 15:50 coperto_pioggia Pioggia Debole 15 13 87 1008 10 N/NE 7.4
Oggi h: 15:20 molto_nuvoloso Molto Nuvoloso 15 13 87 1009 10 N 5.5
Oggi h: 14:50 molto_nuvoloso Molto Nuvoloso 15 13 87 1009 10 NE 11.1
Oggi h: 14:20 molto_nuvoloso Molto Nuvoloso 15 13 87 1009 10 E 9.3
Oggi h: 13:50 molto_nuvoloso Molto Nuvoloso 15 13 87 1009 10 N/NE 9.3
Oggi h: 13:20 molto_nuvoloso Molto Nuvoloso 14 14 100 1010 10 E/NE 11.1
Oggi h: 12:50 molto_nuvoloso Molto Nuvoloso 14 13 93 1010 10 N/NE 9.3
Oggi h: 12:20 molto_nuvoloso Molto Nuvoloso 14 13 93 1011 10 N/NE 7.4
Oggi h: 11:50 nuvoloso_piovaschi Debole Rovescio di Pioggia 13 13 100 1011 10 N/NE 7.4
Oggi h: 11:20 nuvoloso_temporali Temporale con Pioggia 13 13 100 1011 4 N/NE 9.3
Oggi h: 10:50 nuvoloso_piovaschi Debole Rovescio di Pioggia Temporale nelle Vicinanze 13 13 100 1011 8 E/NE 9.3
Oggi h: 10:20 nuvoloso_temporali Temporale nelle Vicinanze 13 13 100 1011 4 N 5.5
Oggi h: 09:50 nuvoloso_piovaschi Rovescio di Pioggia 13 13 100 1011 4 N 5.5
Oggi h: 09:20 coperto_pioggia Pioggia Debole 13 13 100 1011 8 N 5.5
Oggi h: 08:50 coperto_pioggia Pioggia Debole 13 13 100 1011 7 N 5.5
Oggi h: 08:20 coperto_pioggia Pioggia Debole 13 13 100 1011 7 E 9.3
Oggi h: 07:50 coperto_pioggia Pioggia 13 13 100 1011 3 N 5.5
Oggi h: 07:20 coperto_pioggia Pioggia 13 13 100 1011 3 N 3.7
Oggi h: 06:50 coperto_pioggia Pioggia 13 13 100 1011 2 N 3.7
Oggi h: 06:20 coperto_pioggia Pioggia 13 13 100 1011 5 N 5.5
Oggi h: 05:50 coperto_pioggia Pioggia Debole 13 13 100 1011 5 N 3.7
Oggi h: 05:20 coperto_pioggia Pioggia Debole 13 13 100 1011 3 N 1.8
Oggi h: 04:50 coperto_pioggia Pioggia Debole 13 13 100 1011 4 N 3.7
Oggi h: 04:20 coperto_pioggia Pioggia 13 13 100 1011 3 N 3.7
Oggi h: 03:50 foschia Foschia 13 13 100 1011 4 N 3.7
Oggi h: 03:20 foschia Foschia 13 13 100 1012 3 N 1.8
Oggi h: 02:50 foschia Foschia 13 13 100 1012 4 N 3.7
Oggi h: 02:20 molto_nuvoloso Molto Nuvoloso 13 13 100 1012 6 N 3.7
Oggi h: 01:50 coperto Coperto 13 13 100 1012 8 E/NE 7.4
Oggi h: 01:20 molto_nuvoloso Molto Nuvoloso 13 13 100 1012 10 N 3.7
Oggi h: 00:50 molto_nuvoloso Molto Nuvoloso 13 13 100 1012 10 E/NE 9.3
Oggi h: 00:20 coperto_pioggia Pioggia Debole 13 13 100 1013 10 N 5.5
Ieri h: 23:50 molto_nuvoloso Molto Nuvoloso 13 13 100 1012 10 N 5.5
Ieri h: 23:20 molto_nuvoloso Molto Nuvoloso 14 13 93 1013 10 O/SO 9.3
Ieri h: 22:50 nuvoloso_piovaschi Debole Rovescio di Pioggia 15 13 87 1013 10 S/SO 13
Ieri h: 22:20 molto_nuvoloso Molto Nuvoloso 14 14 100 1013 10 N 3.7
Ieri h: 21:50 molto_nuvoloso Molto Nuvoloso 14 14 100 1013 10 N 1.8
Ieri h: 21:20 molto_nuvoloso Molto Nuvoloso 14 14 100 1013 10 N 3.7
Ieri h: 20:50 nuvoloso_piovaschi Debole Rovescio di Pioggia 15 14 93 1013 10 N 3.7
Ieri h: 20:20 molto_nuvoloso Rovescio nelle Vicinanze 14 14 100 1013 10 N 3.7
Ieri h: 19:50 coperto_pioggia Pioggia 15 13 87 1014 9 O 11.1
Ieri h: 19:20 coperto Rovescio nelle Vicinanze 15 13 87 1013 10 O 7.4
Ieri h: 18:50 coperto Rovescio nelle Vicinanze 15 13 87 1013 10 O/SO 11.1
Ieri h: 18:20 coperto Coperto 15 13 87 1013 10 O/SO 13
Ieri h: 17:50 coperto_pioggia Pioggia 16 13 82 1014 10 O 9.3